Location: �perlecques
(50.8057°N, 2.1521°E)
Time: 22:06:00
(UTC+00:00)

Oscar 11 - Pass Details

Date: 29 September 2021
Orbit: 612 x 625 km, 97.6° (Epoch: 28 October)

Event Time Altitude Azimuth Distance (km) Brightness Sun altitude
Rises 03:58:41 0° 33° (NNE) 2,892 11.3 -17.9°
Reaches altitude 10° 04:02:51 10° 72° (ENE) 1,979 11.0 -17.3°
Maximum altitude 04:03:47 11° 85° (E) 1,937 10.8 -17.2°
Drops below altitude 10° 04:04:43 10° 98° (E) 1,976 10.6 -17.0°
Sets 04:08:50 0° 137° (SE) 2,874 10.8 -16.4°
